Weather in Muzhi

Russia / Yamalo-Nenets Autonomous Okrug     65°24′01″N   64°42′20″E
temp.,
°C
wind,
m/s
gust,
m/s
humid.,
%
clouds,
%
prec.,
mm/h
press.,
hPa
HPBL,
m
25 january, mon
mon2523:00−33sse3696100 0.2 1034283
02:00−32sse3697100 0.1 1032326
05:00−30sse3698100 0.4 1032350
08:00−29sse4797100 0.4 1030421
11:00−29sse4798100 1.0 1030448
14:00−28s4798100 0.8 1027421
17:00−28s4798100 1.5 1027380
20:00−29sse339898 0.1 102556
26 january, tue
tue2623:00−29s239899 0.1 102446
02:00−28sse2397100 0.0 1022125
05:00−26sse2498100 0.3 1021204
08:00−25sse2498100 0.4 1019222
11:00−24se2398100 0.9 1017243
14:00−23ese2398100 1.1 1015234
17:00−22ene2398100 1.5 1014163
20:00−23ne3598100 0.2 1014230
27 january, wed
wed2723:00−24nne4698100 0.5 1015273
02:00−25nne4797100 0.1 1017322
05:00−29ne4795100 0.2 1020251
08:00−30ne3693100 0.0 1022302
11:00−31ne3593100 0.0 1023312
14:00−31ne3597100 0.1 1025293
17:00−32ene3498100 0.6 1025294
20:00−32ene3598100 0.3 1026305
28 january, thu
thu2823:00−33ene3598100 0.8 1025289
02:00−34ene4699100 0.7 1024293
05:00−34ene4698100 1.8 1023318
08:00−35ne5798100 0.9 1022348
11:00−34ne5798100 1.3 1022374
14:00−33ne5797100 0.4 1023409
17:00−33ne5797100 0.8 1024446
20:00−34ne4797100 0.2 1026386
29 january, fri
fri2923:00−36nne4797100 0.3 1027294
02:00−39n4698100 0.0 1030123
05:00−41n349792 0.0 103347
08:00−43n239545 0.0 103623
11:00−43n129427 0.0 103818
14:00−42n00930 0.0 104019
17:00−43sse11920 0.0 104018
20:00−42s22870 0.0 104118